Date String (YYYY-MM-DD hh:mm:ss) UTC,Instrument flags,absolute air pressure of the measurement (hPa),sample flow rate (lpm),inlet stack bypass flow (lpm),air temperature of the measurement (°C),ambient temperature measured by the external sensor (°C),aerosol sample conditioner tube jacket temperature (°C),OPC LED temperature (°C),internal box temperature (°C),relative humidity of the measurement (%),span deviation,mass concentration of particles derived from Lorenz-Mie calculation of OPC scattering (μg/m³),mass concentration of particles derived from Lorenz-Mie calculation of OPC scattering (μg/m³),mass concentration of particles derived from Lorenz-Mie calculation of OPC scattering (μg/m³)
DateTimeUTC,F1_M11,P_M11,Q1_M11,Q2_M11,T1_M11,T2_M11,T3_M11,T4_M11,T5_M11,U1_M11,ZSPAN_M11,X0_M11,X2_M11,X1_M11
2024-02-21 20:00:00,SystemResetWarning,0821.1,5.00,000.00,024.9,024.2,000.0,033.2,026.7,16.6,0000.0,0014.27,0006.11,0005.38
2024-02-21 20:01:00,SystemResetWarning,0821.1,5.00,000.00,024.9,024.3,000.0,033.2,026.8,17.1,0000.0,0013.59,0006.09,0005.40
2024-02-21 20:02:00,SystemResetWarning,0821.0,5.00,000.00,024.9,024.3,000.0,033.2,026.7,17.2,0000.0,0014.94,0006.08,0005.42
2024-02-21 20:03:00,SystemResetWarning,0821.0,5.00,000.00,024.9,024.3,000.0,033.2,026.7,17.2,0000.0,0016.37,0006.14,0005.45
2024-02-21 20:04:00,SystemResetWarning,0821.1,5.01,000.00,024.9,024.3,000.0,033.2,026.8,17.1,0000.0,0017.37,0006.16,0005.47
2024-02-21 20:05:00,SystemResetWarning,0821.1,5.00,000.00,024.9,024.3,000.0,033.3,026.8,17.1,0000.0,0017.27,0006.10,0005.46
2024-02-21 20:06:00,SystemResetWarning,0821.1,4.99,000.00,024.9,024.3,000.0,033.3,026.8,16.7,0000.0,0016.15,0006.10,0005.47
2024-02-21 20:07:00,SystemResetWarning,0821.1,5.01,000.00,024.9,024.3,000.0,033.3,026.8,16.5,0000.0,0015.68,0006.10,0005.46
2024-02-21 20:08:00,SystemResetWarning,0821.0,5.00,000.00,024.9,024.3,000.0,033.3,026.8,16.9,0000.0,0015.56,0006.03,0005.44
2024-02-21 20:09:00,SystemResetWarning,0821.0,5.00,000.00,024.9,024.3,000.0,033.3,026.8,17.4,0000.0,0015.40,0006.03,0005.43
2024-02-21 20:10:00,SystemResetWarning,0820.8,5.00,000.00,025.0,024.3,000.0,033.3,026.8,17.3,0000.0,0014.92,0006.00,0005.45
2024-02-21 20:11:00,SystemResetWarning,0820.8,5.00,000.00,025.0,024.3,000.0,033.3,026.8,17.1,0000.0,0014.52,0006.02,0005.46
2024-02-21 20:12:00,SystemResetWarning,0820.8,5.00,000.00,025.0,024.3,000.0,033.3,026.8,16.3,0000.0,0014.74,0006.02,0005.47
2024-02-21 20:13:00,SystemResetWarning,0820.8,5.00,000.00,025.0,024.4,000.0,033.3,026.8,16.5,0000.0,0013.90,0006.01,0005.47
2024-02-21 20:14:00,SystemResetWarning,0820.8,5.00,000.00,025.0,024.4,000.0,033.3,026.8,16.4,0000.0,0012.52,0005.99,0005.45
2024-02-21 20:15:00,SystemResetWarning,0820.8,5.00,000.00,025.0,024.4,000.0,033.3,026.8,16.3,0000.0,0011.36,0005.93,0005.43
2024-02-21 20:16:00,SystemResetWarning,0820.8,5.00,000.00,025.0,024.4,000.0,033.3,026.8,16.2,0000.0,0010.57,0005.90,0005.43
2024-02-21 20:17:00,SystemResetWarning,0820.7,5.00,000.00,025.0,024.4,000.0,033.4,026.9,16.2,0000.0,0010.69,0005.88,0005.43
2024-02-21 20:18:00,SystemResetWarning,0820.7,5.00,000.00,025.0,024.4,000.0,033.4,026.9,16.5,0000.0,0010.78,0005.88,0005.45
2024-02-21 20:19:00,SystemResetWarning,0820.5,5.00,000.00,025.0,024.4,000.0,033.4,026.9,16.3,0000.0,0010.87,0005.89,0005.47
2024-02-21 20:20:00,SystemResetWarning,0820.6,5.00,000.00,025.0,024.4,000.0,033.4,026.9,15.9,0000.0,0012.60,0005.89,0005.46
2024-02-21 20:21:00,SystemResetWarning,0820.6,5.00,000.00,025.0,024.4,000.0,033.4,026.9,16.0,0000.0,0013.92,0005.90,0005.45
2024-02-21 20:22:00,SystemResetWarning,0820.9,5.00,000.00,025.1,024.4,000.0,033.4,026.9,15.6,0000.0,0013.56,0005.89,0005.44
2024-02-21 20:23:00,SystemResetWarning,0820.9,5.00,000.00,025.1,024.4,000.0,033.4,026.9,15.5,0000.0,0013.34,0005.90,0005.43
2024-02-21 20:24:00,SystemResetWarning,0821.0,5.00,000.00,025.1,024.4,000.0,033.4,026.9,15.4,0000.0,0013.73,0005.91,0005.42
2024-02-21 20:25:00,SystemResetWarning,0820.7,5.00,000.00,025.1,024.5,000.0,033.4,026.9,15.4,0000.0,0014.64,0005.88,0005.41
2024-02-21 20:26:00,SystemResetWarning,0820.5,5.00,000.00,025.1,024.5,000.0,033.4,026.9,15.3,0000.0,0015.29,0005.91,0005.41
2024-02-21 20:27:00,SystemResetWarning,0820.6,4.99,000.00,025.1,024.5,000.0,033.4,026.9,15.2,0000.0,0015.60,0005.94,0005.41
2024-02-21 20:28:00,SystemResetWarning,0820.6,4.99,000.00,025.1,024.5,000.0,033.5,026.9,15.4,0000.0,0015.69,0005.98,0005.41
2024-02-21 20:29:00,SystemResetWarning,0820.6,5.00,000.00,025.1,024.5,000.0,033.5,027.0,15.4,0000.0,0015.50,0005.97,0005.42
2024-02-21 20:30:00,SystemResetWarning,0820.5,5.00,000.00,025.1,024.5,000.0,033.5,027.0,15.7,0000.0,0016.08,0005.99,0005.41
2024-02-21 20:31:00,SystemResetWarning,0820.9,5.00,000.00,025.1,024.5,000.0,033.5,027.0,15.3,0000.0,0015.40,0005.97,0005.41
2024-02-21 20:32:00,SystemResetWarning,0820.8,5.00,000.00,025.1,024.5,000.0,033.5,027.0,15.3,0000.0,0013.96,0005.98,0005.42
2024-02-21 20:33:00,SystemResetWarning,0820.9,5.00,000.00,025.1,024.5,000.0,033.5,027.0,15.1,0000.0,0013.56,0005.94,0005.41
2024-02-21 20:34:00,SystemResetWarning,0821.0,5.01,000.00,025.2,024.5,000.0,033.5,027.0,14.7,0001.4,0013.48,0005.91,0005.40
2024-02-21 20:35:00,SystemResetWarning,0820.7,5.00,000.00,025.2,024.5,000.0,033.5,027.0,14.7,0000.0,0013.24,0005.87,0005.38
2024-02-21 20:36:00,SystemResetWarning,0820.6,5.01,000.00,025.2,024.5,000.0,033.5,027.0,15.0,0000.0,0011.96,0005.85,0005.36
2024-02-21 20:37:00,SystemResetWarning,0820.6,5.01,000.00,025.2,024.6,000.0,033.5,027.0,14.8,0000.0,0011.49,0005.85,0005.34
2024-02-21 20:38:00,SystemResetWarning,0820.5,5.00,000.00,025.2,024.6,000.0,033.5,027.0,15.1,0000.0,0011.37,0005.85,0005.35
2024-02-21 20:39:00,SystemResetWarning,0820.3,5.00,000.00,025.2,024.6,000.0,033.6,027.1,15.0,0000.0,0012.02,0005.85,0005.34
2024-02-21 20:40:00,SystemResetWarning,0820.5,5.00,000.00,025.2,024.6,000.0,033.6,027.1,15.5,0000.0,0012.37,0005.84,0005.35
2024-02-21 20:41:00,SystemResetWarning,0821.0,5.00,000.00,025.2,024.6,000.0,033.6,027.1,15.4,0000.0,0011.82,0005.84,0005.36
2024-02-21 20:42:00,SystemResetWarning,0820.5,5.00,000.00,025.2,024.6,000.0,033.6,027.1,14.6,0000.0,0011.82,0005.83,0005.35
2024-02-21 20:43:00,SystemResetWarning,0820.5,5.00,000.00,025.2,024.6,000.0,033.6,027.1,15.0,0000.0,0011.27,0005.80,0005.34
2024-02-21 20:44:00,SystemResetWarning,0820.7,5.00,000.00,025.3,024.6,000.0,033.6,027.1,14.7,0000.0,0011.43,0005.81,0005.34
2024-02-21 20:45:00,SystemResetWarning,0820.6,4.99,000.00,025.3,024.6,000.0,033.6,027.1,14.8,0000.0,0011.53,0005.83,0005.33
2024-02-21 20:46:00,SystemResetWarning,0820.8,5.00,000.00,025.3,024.6,000.0,033.6,027.1,15.3,0000.0,0011.45,0005.85,0005.36
2024-02-21 20:47:00,SystemResetWarning,0821.0,4.99,000.00,025.3,024.7,000.0,033.6,027.1,15.8,0000.0,0012.19,0005.92,0005.41
2024-02-21 20:48:00,SystemResetWarning,0821.3,4.99,000.00,025.3,024.7,000.0,033.6,027.2,15.9,0000.0,0012.27,0005.92,0005.42
2024-02-21 20:49:00,SystemResetWarning,0820.9,5.01,000.00,025.3,024.7,000.0,033.6,027.2,15.8,0000.0,0012.07,0005.93,0005.45
2024-02-21 20:50:00,SystemResetWarning,0821.1,5.01,000.00,025.3,024.7,000.0,033.7,027.2,15.8,0000.0,0011.45,0005.94,0005.46
2024-02-21 20:51:00,SystemResetWarning,0820.9,5.00,000.00,025.3,024.7,000.0,033.7,027.2,15.6,0000.0,0011.11,0005.94,0005.45
2024-02-21 20:52:00,SystemResetWarning,0820.6,5.00,000.00,025.4,024.8,000.0,033.7,027.3,12.7,0000.0,0011.22,0005.95,0005.44
2024-02-21 20:53:00,SystemResetWarning,0820.2,5.01,000.00,025.4,024.8,000.0,033.7,027.2,11.3,0000.0,0011.11,0005.99,0005.45
2024-02-21 20:54:00,SystemResetWarning,0819.8,4.99,000.00,025.4,024.8,000.0,033.7,027.2,10.1,0000.0,0011.47,0005.98,0005.45
2024-02-21 20:55:00,SystemResetWarning,0819.9,4.99,000.00,025.4,024.8,000.0,033.7,027.2,10.9,0000.0,0011.39,0006.07,0005.51
2024-02-21 20:56:00,SystemResetWarning,0820.7,5.00,000.00,025.4,024.8,000.0,033.7,027.2,11.6,0000.0,0011.39,0006.14,0005.60
2024-02-21 20:57:00,SystemResetWarning,0820.6,5.01,000.00,025.4,024.8,000.0,033.7,027.2,13.5,0000.0,0011.49,0006.22,0005.66
2024-02-21 20:58:00,SystemResetWarning,0820.6,5.01,000.00,025.4,024.8,000.0,033.8,027.2,13.6,0000.0,0011.13,0006.27,0005.71
2024-02-21 20:59:00,SystemResetWarning,0820.6,5.00,000.00,025.4,024.8,000.0,033.8,027.3,13.8,0000.0,0010.96,0006.34,0005.77
